Location: ????????
(55.5667°N, 37.5833°E)
Time: 19:14:38
(UTC+00:00)

Ariane Rocket - Pass Details

Date: 14 April 2026
Orbit: 755 x 763 km, 98.4° (Epoch: 19 May)

Event Time Altitude Azimuth Distance (km) Brightness Sun altitude
Exits shadow 19:29:40 25° 202° (SSW) 1,499 4.2 -20.2°
Maximum altitude 19:32:15 46° 261° (W) 1,018 3.7 -20.3°
Drops below altitude 10° 19:37:07 10° 335° (NNW) 2,298 6.7 -20.7°
Sets 19:39:32 0° 341° (NNW) 3,228 7.7 -20.9°
